Cincinnati northern Kentucky International Airport Cincinnati US
ICAO: KCVG
IATA: CVG
Category: Large
Scheduled Services: Yes

Elevation: 896 ft
TransAlt. 18000 ft.

Airport Communications:
APP:119.7
ATIS:134.375
CLNC DEL:127.175
DEP:126.65
GND:121.3
LOUISVILLE RDO:117.3
TWR:118.3
UNICOM:122.95

KCVG Zoom In..

If you have problems with the map follow the link
https://www.worldairports.se/pages/airport.php?
ICAO=KCVG

Runways:

(A) RW 09 length 12000 ft width 150 ft
ILS 111.90 / hdg 94

(B) RW 18C length 11000 ft width 150 ft
ILS 111.55 / hdg 184

(C) RW 18L length 10000 ft width 150 ft
ILS 110.15 / hdg 184

(D) RW 18R length 8000 ft width 150 ft
ILS 110.75 / hdg 184

(E) RW 27 length 12000 ft width 150 ft
ILS 108.70 / hdg 274

(F) RW 36C length 11000 ft width 150 ft
ILS 109.90 / hdg 4

(G) RW 36L length 8000 ft width 150 ft
ILS 110.75 / hdg 4

(H) RW 36R length 10000 ft width 150 ft
ILS 110.35 / hdg 4

Location; KCVG
Day. 19 / Time. 12.52 Zulu
* Altimeter: 30.05
* Temperature: 04° c. 39.2°f.
* Wind from: 050° Speed 04 kn.
Dewpoint: 04° c.
Visibility: 1 m.
Clouds: Broken 300 ft.
Clouds: Overcast 1600 ft.
Conditions: Rain.Conditions: Mist.

KCVG 191252Z 05004KT 1 3/4SM RA BR BKN003 OVC016 04/04 A3005 RMK AO2 RAE08B26 SLP177 P0004 T00440044 $


Wind From 050°
Speed 04 kn.

 
 
jpsmedia.com for Web Design worldairports.se 2018   terms of use